STARLINK-32847, 62811

Orbit data source: Space-Track

STARLINK-32847, 62811 is a payload satellite owned by SpaceX/Seattle (US) in LEO that was launched on Fri, 24 Jan 2025 UTC via an FALCON 9 launch vehicle from the Air Force Western Test Range (AFWTR). Payload-class satellites include a variety of spacecraft equipped with specific instruments for various scientific and technological missions. These include communications satellites like Starlink; space stations such as the ISS; scientific satellites like the Hubble; Earth observation satellites from companies like Planet Labs, Umbra, and HawkEye 360; GPS; miniature CubeSats for education and research; and military/defense satellites.

Loading next visibility...
Identifier
62811, 2025-018F
Orbit
LEO
Last TLE update
9 hours ago
Origin
Manufacturer
SpaceX/Seattle
Mission
Operational Commercial Communications
Bus & Motor
STARLINK V2M, Unknown motor
Mass
730 kg wet, ~700 kg dry
Launch date (UTC)
2025-01-24 (5 months ago)
Launch vehicle
FALCON 9
Launch site
Air Force Western Test Range (AFWTR)
Object type
Payload
Rocket body
Debris
Shape & HBR
Box + 2 Pan, 29 m
Radar Cross Section
33.884 m², Large (>1 m²)

Expand to show TLE details & history

TLE from 9 hours ago
0 STARLINK-32847
1 62811U 25018F   25181.97722777  .00008071  00000-0  28434-3 0  9999
2 62811  53.1580  38.5265 0001107  97.6353 262.4773 15.30199244 25571
Epoch: 2025-06-30T23:27Z
TLE epoch observation values (Epoch: 2025-06-30T23:27:12.479Z)
Latitude
-0.00005°
Longitude
127.44517°
Altitude
476.216 km
Speed
7.629 km/s
True Right ascension
02h 34m 06s
True Declination
0° 00' 00"
Sunlit
Object was in daylight at epoch
Visualization orbit readout
Latitude
-52.90379°
Longitude
45.51667°
Altitude
494.343 km
Speed
7.617 km/s
Apparent Right ascension
04h 47m 21s
Apparent Declination
-81° 48' 11"
Sunlit
Object is in full shadow
Visualization observer readout
Local Sidereal Time
20:07:39
Azimuth
171.127° S
Elevation
-44.853°
Doppler factor
1
Orbital elements
Apogee altitude
476.233 km
Perigee altitude
474.715 km
Semi-major axis
6,853.611 km
Eccentricity
0.00011
Inclination
53.158°
RAAN
38.5265°
Arg. of periapsis
97.6353°
True anomaly
Unknown
Mean anomaly
262.4773°
Eccentric anomaly
Unknown
Mean motion
3.82529 °/min
Orbital period
94.11 mins
BSTAR
0.00028434
Loading maneuver chart data...
Loading SW <> Apogee altitude chart data...
Loading historical data...
Loading historical data...
Loading historical data...
Loading historical data...
Loading historical data...
Loading historical data...
Loading historical data...

STARLINK-32847 Visibility forecast

Observer location: undefined°, undefined°

Span
Click to sort rows by Start time (UTC) header in descending order
Start Az.
Max El. time (UTC)
Max El. Az.
Max El.
End time (UTC)
End Az.
6 mins2025-07-01 16:51:31.952Z213.831° SW2025-07-01 16:54:31.952Z162.621° S38.663°2025-07-01 16:57:31.952Z61.295° ENE
4 mins2025-07-01 18:31:31.952Z299.036° NW2025-07-01 18:32:31.952Z321.052° NNW20.972°2025-07-01 18:35:31.952Z23.491° NE
5 mins2025-07-01 23:27:31.952Z326.376° NNW2025-07-01 23:29:31.952Z14.584° NNE35.945°2025-07-01 23:32:31.952Z106.595° ESE
|